This demonstration page uses our WeatherBlox Daily Observations layout. Learn more.

Left ArrowRight Arrow

41.86663, -103.66717

Hourly Observations for August 1, 2018

Temp ( °F °C ) Dew Point ( °F °C ) Humidity (%) Winds ( mph kmh ) Pressure ( in mb ) Visibility ( mi km ) Precip ( " mm )
12:53 am 00:53 Clear 59 15 57 13.9 93 93 NNE 3 6 30.03 1017 10 16 0.00 0.00
1:53 am 01:53 Clear 59 15 56 13.3 90 90 Calm 30.02 1017 10 16 0.00 0.00
2:53 am 02:53 Clear 57 13.9 56 13.3 96 96 Calm 30.01 1016 10 16 0.00 0.00
3:53 am 03:53 Clear 55 12.8 55 12.8 100 100 NNW 3 6 30.01 1016 10 16 0.00 0.00
4:53 am 04:53 Clear 53 11.7 53 11.7 100 100 undefined N/A 30.01 1016 10 16 0.00 0.00
5:53 am 05:53 Sunny 53 11.7 53 11.7 100 100 WNW 6 9 30.02 1017 10 16 0.00 0.00
6:53 am 06:53 Sunny 55 12.8 55 12.8 100 100 NW 5 7 30.03 1017 10 16 0.00 0.00
7:53 am 07:53 Sunny 60 15.6 58 14.4 93 93 NW 3 6 30.04 1017 10 16 0.00 0.00
8:53 am 08:53 Sunny 65 18.3 57 13.9 76 76 WNW 7 11 30.06 1018 10 16 0.00 0.00
9:53 am 09:53 Sunny 71 21.7 61 16.1 71 71 W 6 9 30.05 1018 10 16 0.00 0.00
10:53 am 10:53 Sunny 74 23.3 61 16.1 64 64 VRB 5 7 30.05 1018 10 16 0.00 0.00
11:53 am 11:53 Sunny 79 26.1 61 16.1 54 54 ENE 3 6 30.02 1017 10 16 0.00 0.00
12:53 pm 12:53 Sunny 78 25.6 58 14.4 50 50 E 8 13 30.02 1017 10 16 0.00 0.00
1:53 pm 13:53 Sunny 81 27.2 60 15.6 49 49 VRB 7 11 30.00 1016 10 16 0.00 0.00
2:53 pm 14:53 Sunny 82 27.8 51 10.6 34 34 ESE 7 11 29.99 1016 10 16 0.00 0.00
3:53 pm 15:53 Sunny 82 27.8 55 12.8 40 40 VRB 5 7 29.98 1015 10 16 0.00 0.00
4:53 pm 16:53 Sunny 84 28.9 49 9.4 30 30 ESE 9 15 29.97 1015 10 16 0.00 0.00
5:53 pm 17:53 Sunny 83 28.3 56 13.3 40 40 ESE 8 13 29.96 1015 10 16 0.00 0.00
6:53 pm 18:53 Sunny 78 25.6 62 16.7 58 58 E 6 9 29.96 1015 10 16 0.00 0.00
7:53 pm 19:53 Sunny 74 23.3 59 15 60 60 SE 7 11 29.96 1015 10 16 0.00 0.00
8:53 pm 20:53 Clear 69 20.6 60 15.6 73 73 E 8 13 29.96 1015 10 16 0.00 0.00
9:53 pm 21:53 Clear 64 17.8 60 15.6 87 87 ESE 5 7 29.97 1015 10 16 0.00 0.00
10:53 pm 22:53 Clear 63 17.2 58 14.4 84 84 ESE 7 11 29.96 1015 10 16 0.00 0.00
11:53 pm 23:53 Clear 60 15.6 57 13.9 90 90 E 7 11 29.96 1014 10 16 0.00 0.00

Powered by AerisWeather